Weather History for Marfa, TX

Change the Weather History Date:

Sunday, July 13, 2014

  Actual Average Record
Temperature  
Mean Temperature 72 °F -  
Max Temperature 87 °F 85 °F 96 °F (2006)
Min Temperature 57 °F 59 °F 55 °F (2003)
Cooling Degree Days 7    
Growing Degree Days 22 (Base 50)    
Moisture  
Dew Point 55 °F    
Average Humidity 55    
Maximum Humidity 88    
Minimum Humidity 29    
Precipitation  
Precipitation 0.00 in - - ()
Sea Level Pressure  
Sea Level Pressure 30.25 in    
Wind  
Wind Speed 4 mph (ESE)    
Max Wind Speed 14 mph    
Max Gust Speed 22 mph    
Visibility 10 miles    
Events      
Averages and records for this station are not official NWS values.
T = Trace of Precipitation, MM = Missing Value Source: NWS Daily Summary

Daily Weather History Graph

Daily Weather History Graph

Search for Another Location

Airport:

Trip Planner

Search our weather history database for the weather conditions in past years. The results will help you decide how hot, cold, wet, or windy it might be!

Date:

Astronomy

Jul. 13, 2014 Rise Set
Actual Time 7:03 AM CDT 9:00 PM CDT
Civil Twilight 6:36 AM CDT 9:27 PM CDT
Nautical Twilight 6:03 AM CDT 9:59 PM CDT
Astronomical Twilight 5:28 AM CDT 10:34 PM CDT
Moon 10:02 PM CDT (7/13) 8:27 AM CDT (7/13)
Length of Visible Light 14h 50m
Length of Day
13h 56m
Full, 98% of the Moon is Illuminated
Jul 13
Full
Jul 18
Last Quarter
Jul 26
New
Aug 3
First Quarter
Aug 10
Full

Hourly Weather History & Observations

Time (CDT) Temp. Heat Index Dew Point Humidity Pressure Visibility Wind Dir Wind Speed Gust Speed Precip Events Conditions
12:15 AM 66.2 °F - 57.2 °F 73% 30.26 in 10.0 mi Calm Calm - N/A   Clear
12:35 AM 64.4 °F - 57.2 °F 77% 30.26 in 10.0 mi NE 3.5 mph - N/A   Clear
12:55 AM 68.0 °F - 55.4 °F 64% 30.26 in 10.0 mi ENE 3.5 mph - N/A   Clear
1:15 AM 68.0 °F - 55.4 °F 64% 30.26 in 10.0 mi NE 3.5 mph - N/A   Clear
1:35 AM 66.2 °F - 55.4 °F 68% 30.26 in 10.0 mi ENE 5.8 mph - N/A   Clear
1:55 AM 66.2 °F - 55.4 °F 68% 30.26 in 10.0 mi East 5.8 mph - N/A   Clear
2:15 AM 64.4 °F - 55.4 °F 73% 30.26 in 10.0 mi East 3.5 mph - N/A   Clear
2:35 AM 64.4 °F - 55.4 °F 73% 30.26 in 10.0 mi NE 3.5 mph - N/A   Clear
2:55 AM 64.4 °F - 55.4 °F 73% 30.25 in 10.0 mi Calm Calm - N/A   Clear
3:15 AM 62.6 °F - 55.4 °F 77% 30.25 in 10.0 mi Calm Calm - N/A   Clear
3:35 AM 64.4 °F - 55.4 °F 73% 30.25 in 10.0 mi East 3.5 mph - N/A   Clear
3:55 AM 62.6 °F - 55.4 °F 77% 30.25 in 10.0 mi East 4.6 mph - N/A   Clear
4:15 AM 62.6 °F - 55.4 °F 77% 30.25 in 10.0 mi North 3.5 mph - N/A   Clear
4:35 AM 62.6 °F - 55.4 °F 77% 30.25 in 10.0 mi Calm Calm - N/A   Clear
4:55 AM 62.6 °F - 55.4 °F 77% 30.25 in 10.0 mi Calm Calm - N/A   Clear
5:15 AM 62.6 °F - 55.4 °F 77% 30.25 in 10.0 mi Calm Calm - N/A   Clear
5:35 AM 62.6 °F - 55.4 °F 77% 30.26 in 10.0 mi Calm Calm - N/A   Clear
5:55 AM 59.0 °F - 53.6 °F 82% 30.26 in 10.0 mi NNW 5.8 mph - N/A   Clear
6:15 AM 59.0 °F - 53.6 °F 82% 30.26 in 10.0 mi Calm Calm - N/A   Clear
6:35 AM 57.2 °F - 53.6 °F 88% 30.27 in 10.0 mi NNE 3.5 mph - N/A   Clear
6:55 AM 59.0 °F - 53.6 °F 82% 30.26 in 10.0 mi NNE 4.6 mph - N/A   Partly Cloudy
7:15 AM 57.2 °F - 53.6 °F 88% 30.27 in 10.0 mi NNW 6.9 mph - N/A   Partly Cloudy
7:35 AM 57.2 °F - 53.6 °F 88% 30.27 in 10.0 mi NNW 5.8 mph - N/A   Clear
7:55 AM 60.8 °F - 55.4 °F 82% 30.28 in 10.0 mi NNW 5.8 mph - N/A   Clear
8:15 AM 62.6 °F - 55.4 °F 77% 30.28 in 10.0 mi North 5.8 mph - N/A   Mostly Cloudy
8:35 AM 64.4 °F - 57.2 °F 77% 30.28 in 10.0 mi Calm Calm - N/A   Mostly Cloudy
8:55 AM 66.2 °F - 55.4 °F 68% 30.28 in 10.0 mi Calm Calm - N/A   Partly Cloudy
9:15 AM 69.8 °F - 57.2 °F 64% 30.30 in 10.0 mi Calm Calm - N/A   Clear
9:35 AM 71.6 °F - 57.2 °F 60% 30.30 in 10.0 mi Calm Calm - N/A   Scattered Clouds
9:55 AM 71.6 °F - 57.2 °F 60% 30.31 in 10.0 mi Calm Calm - N/A   Mostly Cloudy
10:15 AM 73.4 °F - 57.2 °F 57% 30.31 in 10.0 mi SSE 3.5 mph - N/A   Partly Cloudy
10:35 AM 75.2 °F - 57.2 °F 53% 30.30 in 10.0 mi South 5.8 mph - N/A   Clear
10:55 AM 75.2 °F - 57.2 °F 53% 30.30 in 10.0 mi Calm Calm - N/A   Clear
11:15 AM 78.8 °F - 57.2 °F 47% 30.30 in 10.0 mi Calm Calm - N/A   Clear
11:35 AM 78.8 °F - 55.4 °F 44% 30.30 in 10.0 mi South 3.5 mph - N/A   Clear
11:55 AM 80.6 °F 80.5 °F 55.4 °F 42% 30.29 in 10.0 mi SSW 4.6 mph - N/A   Clear
12:15 PM 80.6 °F 80.5 °F 55.4 °F 42% 30.29 in 10.0 mi SE 9.2 mph - N/A   Partly Cloudy
12:35 PM 80.6 °F 80.5 °F 55.4 °F 42% 30.28 in 10.0 mi Calm Calm - N/A   Scattered Clouds
12:55 PM 82.4 °F 81.7 °F 55.4 °F 39% 30.28 in 10.0 mi SE 10.4 mph - N/A   Partly Cloudy
1:15 PM 84.2 °F 83.0 °F 55.4 °F 37% 30.28 in 10.0 mi SE 11.5 mph 16.1 mph N/A   Scattered Clouds
1:35 PM 84.2 °F 83.0 °F 55.4 °F 37% 30.27 in 10.0 mi SE 8.1 mph 19.6 mph N/A   Mostly Cloudy
1:55 PM 84.2 °F 83.0 °F 55.4 °F 37% 30.27 in 10.0 mi SSE 8.1 mph - N/A   Mostly Cloudy
2:15 PM 84.2 °F 83.0 °F 55.4 °F 37% 30.26 in 10.0 mi SE 11.5 mph 16.1 mph N/A   Partly Cloudy
2:35 PM 84.2 °F 82.8 °F 53.6 °F 35% 30.25 in 10.0 mi SE 9.2 mph - N/A   Partly Cloudy
2:55 PM 86.0 °F 84.5 °F 55.4 °F 35% 30.25 in 10.0 mi ESE 8.1 mph - N/A   Clear
3:15 PM 86.0 °F 84.5 °F 55.4 °F 35% 30.24 in 10.0 mi SSE 10.4 mph - N/A   Clear
3:35 PM 84.2 °F 82.8 °F 53.6 °F 35% 30.24 in 10.0 mi South 11.5 mph 17.3 mph N/A   Clear
3:55 PM 86.0 °F 84.2 °F 53.6 °F 33% 30.23 in 10.0 mi SE 13.8 mph 17.3 mph N/A   Scattered Clouds
4:15 PM 86.0 °F 84.2 °F 53.6 °F 33% 30.23 in 10.0 mi SSE 4.6 mph - N/A   Partly Cloudy
4:35 PM 87.8 °F 85.7 °F 53.6 °F 31% 30.22 in 10.0 mi SE 9.2 mph 17.3 mph N/A   Mostly Cloudy
4:55 PM 87.8 °F 85.7 °F 53.6 °F 31% 30.21 in 10.0 mi ESE 11.5 mph - N/A   Partly Cloudy
5:15 PM 87.8 °F - 51.8 °F 29% 30.21 in 10.0 mi SSE 8.1 mph - N/A   Clear
5:35 PM 87.8 °F - 51.8 °F 29% 30.20 in 10.0 mi SSE 9.2 mph - N/A   Clear
6:15 PM 87.8 °F - 51.8 °F 29% 30.19 in 10.0 mi SE 10.4 mph 21.9 mph N/A   Scattered Clouds
6:35 PM 87.8 °F - 51.8 °F 29% 30.19 in 10.0 mi SE 9.2 mph 18.4 mph N/A   Partly Cloudy
6:55 PM 86.0 °F - 51.8 °F 31% 30.18 in 10.0 mi SSE 9.2 mph 17.3 mph N/A   Clear
7:15 PM 86.0 °F - 51.8 °F 31% 30.18 in 10.0 mi SE 8.1 mph - N/A   Clear
7:35 PM 84.2 °F - 51.8 °F 33% 30.18 in 10.0 mi SSE 13.8 mph - N/A   Clear
7:55 PM 84.2 °F - 51.8 °F 33% 30.18 in 10.0 mi SE 12.7 mph 17.3 mph N/A   Clear
8:15 PM 84.2 °F - 50.0 °F 30% 30.18 in 10.0 mi SSE 10.4 mph - N/A   Clear
8:35 PM 82.4 °F - 50.0 °F 32% 30.19 in 10.0 mi SE 8.1 mph - N/A   Clear
8:55 PM 80.6 °F - 50.0 °F 34% 30.19 in 10.0 mi SE 6.9 mph - N/A   Clear
9:15 PM 78.8 °F - 50.0 °F 36% 30.20 in 10.0 mi ESE 5.8 mph - N/A   Clear
9:35 PM 75.2 °F - 51.8 °F 44% 30.20 in 10.0 mi ESE 6.9 mph - N/A   Clear
9:55 PM 75.2 °F - 51.8 °F 44% 30.20 in 10.0 mi ESE 9.2 mph - N/A   Clear
10:15 PM 77.0 °F - 57.2 °F 50% 30.20 in 10.0 mi ESE 11.5 mph - N/A   Clear
10:35 PM 75.2 °F - 57.2 °F 53% 30.21 in 10.0 mi ESE 10.4 mph - N/A   Clear
10:55 PM 75.2 °F - 57.2 °F 53% 30.21 in 10.0 mi East 8.1 mph - N/A   Clear
11:15 PM 73.4 °F - 57.2 °F 57% 30.22 in 10.0 mi East 6.9 mph - N/A   Clear
11:35 PM 71.6 °F - 57.2 °F 60% 30.23 in 10.0 mi East 5.8 mph - N/A   Clear
11:55 PM 71.6 °F - 57.2 °F 60% 30.24 in 10.0 mi ESE 6.9 mph - N/A   Clear